Content
SEND FEEDBACK

Daily
Averages
Monthly
Summary
United States of America

VAL VERDE PARK, TEXAS


Home > North America > United States > Texas
Elevation: 1082 feet     Latitude: 29 22N     Longitude: 100 47W

WEATHER
 
SELECT A DAY
Number of Records: 183,044;   Date Range: 1/1/95 - 8/12/14
 
SHARE

PRINT THIS DATA

[ ← Previous Day ]
WEATHER ALMANAC - JANUARY 31, 2013
[ Next Day → ]
[ °C ]   °F
Weather ElementAverageHighLow
Temperature50.3 °F66.4 °F (3:55 pm)32.5 °F (6:55 am)
Dewpoint18.7 °F24.1 °F (9:55 pm)14.2 °F (4:55 pm)
Humidity33.3 %58 % (4:55 am)13 % (4:55 pm)
Barometer30.23 in30.30 in (9:55 am)30.15 in (4:55 pm)
Wind Speed5.2 mph12.7 mph (10:55 am)
Wind Gust17.3 mph (11:55 am)
Weather ElementAverage
Visibility10 mi
Wind DirectionESE (95.7 °)

Weather ElementTotal
Precipitation---
Heating Degree Days15.6 (Base 65)
Averaged from 23 records on January 31, 2013
WEATHER CONDITIONS BREAKOUT
WIND DIRECTION BREAKOUT
WEATHER BY HOUR - JANUARY 31, 2013
[ °C ]   °F
Local TimeTemperatureDewpointHumidityBarometerVisibilityWind DirectionWind SpeedGust SpeedPrecipitationEventsConditions
1:55 AM35.6 °F18.7 °F50 %30.22 in10.0 miNE (40°)3.5 mphClear
2:55 AM34.3 °F19.4 °F54 %30.22 in10.0 miNE (50°)8.1 mphClear
3:55 AM33.1 °F19.0 °F56 %30.24 in10.0 miCalmClear
4:55 AM32.7 °F19.6 °F58 %30.22 in10.0 miCalmClear
5:55 AM32.7 °F19.0 °F57 %30.24 in10.0 miNE (50°)8.1 mphClear
6:55 AM32.5 °F19.2 °F58 %30.25 in10.0 miENE (70°)5.8 mphClear
7:55 AM33.3 °F18.9 °F56 %30.26 in10.0 miNE (50°)6.9 mphClear
8:55 AM39.7 °F19.8 °F45 %30.28 in10.0 miEast (80°)3.5 mphClear
9:55 AM50.0 °F19.2 °F30 %30.30 in10.0 miSSE (150°)4.6 mphClear
10:55 AM58.6 °F15.4 °F18 %30.30 in10.0 miSouth (190°)12.7 mphClear
11:55 AM62.2 °F14.4 °F16 %30.28 in10.0 miSouth (180°)11.5 mph17.3 mphClear
12:55 PM64.2 °F14.4 °F14 %30.24 in10.0 miSSE (160°)6.9 mphClear
1:55 PM65.5 °F15.3 °F14 %30.20 in10.0 miSouth (170°)9.2 mphClear
2:55 PM64.6 °F14.5 °F14 %30.17 in10.0 miCalmPartly Cloudy
3:55 PM66.4 °F15.4 °F14 %30.17 in10.0 miVariable4.6 mphClear
4:55 PM66.2 °F14.2 °F13 %30.15 in10.0 miSouth (180°)4.6 mphPartly Cloudy
5:55 PM63.7 °F19.2 °F18 %30.17 in10.0 miSSE (150°)5.8 mphClear
6:55 PM58.6 °F22.1 °F24 %30.19 in10.0 miSSE (160°)5.8 mphClear
7:55 PM56.7 °F22.1 °F26 %30.22 in10.0 miSE (140°)4.6 mphClear
8:55 PM56.3 °F20.7 °F25 %30.23 in10.0 miSE (130°)3.5 mphClear
9:55 PM52.0 °F24.1 °F34 %30.24 in10.0 miENE (70°)3.5 mphScattered Clouds
10:55 PM50.4 °F23.4 °F35 %30.24 in10.0 miEast (80°)3.5 mphOvercast
11:55 PM48.4 °F22.8 °F37 %30.24 in10.0 miEast (100°)3.5 mphMostly Cloudy
Hourly data recorded from KDLF, located miles away from Val Verde Park, Texas







STORIES FROM OUR PARTNERS